CPA181 VHHH-YSSY

Flight info

Callsign CPA181
Flight time N/A
Altitude 35000
Route DALOL DCT SABNO A583 ZAM A461 BONDA/N0480F370 A461 AMN R340 GUTEV DCT RINLA DCT ENRES DCT NIVED/N0474F390 DCT 2156S14155E 2453S14524E DCT SGE Y161 OVNOM H652 BOREE
Aircraft B772/H-SDE2E3FGHIJ5LORVWXY/LB1D1

Departure

Time N/A
Airport Hong Kong International Airport (VHHH)

Arrival

Time 2026-05-07 07:20
Airport Sydney Kingsford Smith International Airport (YSSY)
Time Latitude Longitude Altitude Speed Heading
2026-05-07 06:28 -31.65593 150.71469 39071 ft 523 kts 177°
2026-05-07 06:29 -31.72636 150.73564 39060 ft 525 kts 177°
2026-05-07 06:29 -31.83452 150.76871 39054 ft 526 kts 176°
2026-05-07 06:30 -31.90313 150.79005 39049 ft 510 kts 176°
2026-05-07 06:30 -31.96869 150.81070 39076 ft 475 kts 177°
2026-05-07 06:30 -32.03763 150.83182 38596 ft 441 kts 183°
2026-05-07 06:30 -32.06784 150.83751 37533 ft 448 kts 186°
2026-05-07 06:31 -32.08836 150.84091 36738 ft 460 kts 185°
2026-05-07 06:31 -32.13186 150.84811 34815 ft 492 kts 185°
2026-05-07 06:31 -32.15436 150.85187 33637 ft 511 kts 185°
2026-05-07 06:31 -32.20582 150.86069 31836 ft 526 kts 183°
2026-05-07 06:32 -32.25981 150.87030 30832 ft 517 kts 182°
2026-05-07 06:32 -32.29459 150.87650 30303 ft 507 kts 182°
2026-05-07 06:32 -32.34028 150.88464 29698 ft 493 kts 182°
2026-05-07 06:32 -32.37382 150.89056 28933 ft 489 kts 181°
2026-05-07 06:33 -32.40222 150.89557 28386 ft 484 kts 182°
2026-05-07 06:33 -32.42402 150.89943 27978 ft 480 kts 182°
2026-05-07 06:33 -32.46746 150.90710 27218 ft 471 kts 182°
2026-05-07 06:33 -32.48889 150.91089 26826 ft 466 kts 182°
2026-05-07 06:34 -32.53125 150.91838 26080 ft 458 kts 182°
2026-05-07 06:34 -32.56251 150.92390 25519 ft 452 kts 181°
2026-05-07 06:34 -32.58321 150.92757 25161 ft 448 kts 182°
2026-05-07 06:34 -32.61364 150.93295 24633 ft 442 kts 182°
2026-05-07 06:35 -32.65381 150.94006 23915 ft 435 kts 182°
2026-05-07 06:35 -32.67367 150.94357 23556 ft 431 kts 182°
2026-05-07 06:35 -32.70299 150.94876 23032 ft 426 kts 182°
2026-05-07 06:35 -32.73219 150.95395 22501 ft 422 kts 182°
2026-05-07 06:36 -32.76087 150.95903 21966 ft 418 kts 182°
2026-05-07 06:36 -32.78954 150.96411 21440 ft 413 kts 181°
2026-05-07 06:36 -32.82717 150.97080 20706 ft 408 kts 181°
2026-05-07 06:36 -32.85506 150.97575 20164 ft 404 kts 181°
2026-05-07 06:37 -32.87360 150.97905 19827 ft 401 kts 181°
2026-05-07 06:37 -32.90073 150.98387 19309 ft 396 kts 180°
2026-05-07 06:37 -32.93697 150.99033 18565 ft 390 kts 180°
2026-05-07 06:37 -32.95443 150.99345 18224 ft 387 kts 180°
2026-05-07 06:38 -32.98963 150.99973 17548 ft 381 kts 179°
2026-05-07 06:38 -33.01576 151.00438 17012 ft 376 kts 179°
2026-05-07 06:38 -33.04154 151.00899 16475 ft 371 kts 178°
2026-05-07 06:38 -33.06665 151.01347 15975 ft 367 kts 178°
2026-05-07 06:39 -33.09196 151.01799 15457 ft 362 kts 178°
2026-05-07 06:39 -33.11620 151.02232 14953 ft 357 kts 177°
2026-05-07 06:39 -33.14069 151.02670 14449 ft 353 kts 176°
2026-05-07 06:39 -33.16469 151.03101 13963 ft 348 kts 176°
2026-05-07 06:40 -33.18080 151.03389 13621 ft 345 kts 176°
2026-05-07 06:40 -33.21198 151.03947 12965 ft 340 kts 176°
2026-05-07 06:40 -33.23549 151.04370 12475 ft 336 kts 175°
2026-05-07 06:40 -33.25824 151.04793 11997 ft 332 kts 175°
2026-05-07 06:41 -33.28087 151.05231 11512 ft 328 kts 175°
2026-05-07 06:41 -33.30340 151.05664 11043 ft 328 kts 175°
2026-05-07 06:41 -33.31824 151.05951 10925 ft 320 kts 175°
2026-05-07 06:41 -33.34652 151.06497 10787 ft 302 kts 175°
2026-05-07 06:42 -33.36713 151.06892 10663 ft 297 kts 175°
2026-05-07 06:42 -33.38748 151.07281 10546 ft 289 kts 175°
2026-05-07 06:42 -33.40685 151.07654 10442 ft 278 kts 175°
2026-05-07 06:42 -33.42568 151.08015 10332 ft 267 kts 175°
2026-05-07 06:43 -33.44377 151.08363 10255 ft 256 kts 176°
2026-05-07 06:43 -33.46070 151.08690 10250 ft 243 kts 176°
2026-05-07 06:43 -33.47699 151.09003 10193 ft 232 kts 176°
2026-05-07 06:43 -33.49290 151.09306 10059 ft 227 kts 176°
2026-05-07 06:44 -33.50895 151.09611 10054 ft 238 kts 176°
2026-05-07 06:44 -33.51991 151.09822 10049 ft 235 kts 176°
2026-05-07 06:44 -33.53583 151.10130 9799 ft 234 kts 176°
2026-05-07 06:44 -33.55190 151.10439 9464 ft 235 kts 176°
2026-05-07 06:45 -33.57336 151.10854 9098 ft 233 kts 176°
2026-05-07 06:45 -33.58390 151.11055 8904 ft 233 kts 176°
2026-05-07 06:45 -33.60526 151.11469 8575 ft 229 kts 176°
2026-05-07 06:45 -33.62085 151.11769 8273 ft 230 kts 176°
2026-05-07 06:46 -33.63659 151.12080 7979 ft 229 kts 176°
2026-05-07 06:46 -33.65243 151.12395 7720 ft 227 kts 176°
2026-05-07 06:46 -33.66806 151.12712 7398 ft 229 kts 172°
2026-05-07 06:46 -33.68239 151.13573 7062 ft 242 kts 143°
2026-05-07 06:47 -33.69317 151.15129 6795 ft 245 kts 133°
2026-05-07 06:47 -33.70287 151.16745 6780 ft 231 kts 133°
2026-05-07 06:47 -33.71191 151.18275 6722 ft 220 kts 133°
2026-05-07 06:47 -33.72069 151.19762 6443 ft 221 kts 133°
2026-05-07 06:48 -33.72956 151.21249 6160 ft 220 kts 133°
2026-05-07 06:48 -33.73827 151.22723 6084 ft 209 kts 133°
2026-05-07 06:48 -33.74636 151.24109 6102 ft 203 kts 133°
2026-05-07 06:48 -33.75467 151.25522 5957 ft 208 kts 133°
2026-05-07 06:49 -33.76292 151.26926 5703 ft 206 kts 133°
2026-05-07 06:49 -33.77106 151.28311 5447 ft 202 kts 133°
2026-05-07 06:49 -33.77909 151.29694 5201 ft 201 kts 133°
2026-05-07 06:49 -33.78713 151.31071 4953 ft 203 kts 133°
2026-05-07 06:50 -33.79525 151.32465 4699 ft 203 kts 133°
2026-05-07 06:50 -33.80334 151.33861 4450 ft 203 kts 133°
2026-05-07 06:50 -33.81128 151.35242 4202 ft 202 kts 133°
2026-05-07 06:50 -33.81934 151.36639 3950 ft 201 kts 133°
2026-05-07 06:51 -33.82834 151.37871 3699 ft 190 kts 157°
2026-05-07 06:51 -33.84021 151.38415 3446 ft 180 kts 172°
2026-05-07 06:51 -33.85224 151.38818 3201 ft 178 kts 173°
2026-05-07 06:51 -33.86408 151.39212 2993 ft 176 kts 173°
2026-05-07 06:52 -33.87599 151.39609 2855 ft 177 kts 173°
2026-05-07 06:52 -33.88781 151.39877 2895 ft 172 kts 193°
2026-05-07 06:52 -33.89828 151.39253 2888 ft 167 kts 231°
2026-05-07 06:52 -33.90190 151.37990 2879 ft 165 kts 270°
2026-05-07 06:53 -33.89924 151.36662 2896 ft 163 kts 277°
2026-05-07 06:53 -33.89813 151.35315 2786 ft 167 kts 255°
2026-05-07 06:53 -33.90139 151.34006 2569 ft 153 kts 249°
2026-05-07 06:53 -33.90447 151.32838 2381 ft 140 kts 251°
2026-05-07 06:54 -33.90701 151.31775 2225 ft 128 kts 251°
2026-05-07 06:54 -33.90959 151.30704 2054 ft 133 kts 251°
2026-05-07 06:54 -33.91199 151.29691 1879 ft 120 kts 251°
2026-05-07 06:54 -33.91421 151.28763 1727 ft 110 kts 250°
2026-05-07 06:55 -33.91634 151.27887 1595 ft 114 kts 251°
2026-05-07 06:55 -33.91852 151.26958 1438 ft 114 kts 251°
2026-05-07 06:55 -33.92074 151.26036 1275 ft 116 kts 252°
2026-05-07 06:55 -33.92297 151.25095 1084 ft 115 kts 252°
2026-05-07 06:56 -33.92529 151.24181 987 ft 117 kts 252°
2026-05-07 06:56 -33.92760 151.23173 1391 ft 129 kts 253°
2026-05-07 06:56 -33.92961 151.22104 1962 ft 146 kts 255°
2026-05-07 06:56 -33.93150 151.20892 2739 ft 142 kts 255°
2026-05-07 06:57 -33.93331 151.19731 3043 ft 140 kts 254°
2026-05-07 06:57 -33.93523 151.18506 3104 ft 162 kts 255°
2026-05-07 06:57 -33.93750 151.17131 3029 ft 176 kts 255°
2026-05-07 06:57 -33.94015 151.15675 3011 ft 179 kts 254°
2026-05-07 06:58 -33.94289 151.14189 3007 ft 184 kts 254°
2026-05-07 06:58 -33.94565 151.12721 3004 ft 180 kts 253°
2026-05-07 06:58 -33.94894 151.11255 3006 ft 180 kts 252°
2026-05-07 06:58 -33.95253 151.09717 3020 ft 201 kts 252°
2026-05-07 06:59 -33.95631 151.08113 3016 ft 200 kts 252°
2026-05-07 06:59 -33.96007 151.06512 3010 ft 199 kts 252°
2026-05-07 06:59 -33.96531 151.05000 3004 ft 198 kts 231°
2026-05-07 06:59 -33.97665 151.04100 2999 ft 202 kts 198°
2026-05-07 07:00 -33.99071 151.04205 2999 ft 210 kts 164°
2026-05-07 07:00 -34.00262 151.05333 3005 ft 234 kts 136°
2026-05-07 07:00 -34.01271 151.06969 3015 ft 246 kts 133°
2026-05-07 07:00 -34.02263 151.08632 3009 ft 245 kts 133°
2026-05-07 07:01 -34.03261 151.10309 3008 ft 246 kts 133°
2026-05-07 07:01 -34.04255 151.11969 3019 ft 247 kts 133°
2026-05-07 07:01 -34.05262 151.13652 3012 ft 245 kts 133°
2026-05-07 07:01 -34.06253 151.15299 3004 ft 246 kts 133°
2026-05-07 07:02 -34.07255 151.16962 3008 ft 246 kts 133°
2026-05-07 07:02 -34.08268 151.18646 3004 ft 247 kts 133°
2026-05-07 07:02 -34.09168 151.20406 2991 ft 253 kts 116°
2026-05-07 07:02 -34.09358 151.22540 2975 ft 263 kts 84°
2026-05-07 07:03 -34.08949 151.24663 2991 ft 261 kts 78°
2026-05-07 07:03 -34.08483 151.26776 2989 ft 257 kts 78°
2026-05-07 07:03 -34.08025 151.28834 2994 ft 255 kts 78°
2026-05-07 07:03 -34.07574 151.30887 2998 ft 256 kts 78°
2026-05-07 07:04 -34.07120 151.32968 3002 ft 255 kts 78°
2026-05-07 07:04 -34.06669 151.35019 2998 ft 253 kts 78°
2026-05-07 07:04 -34.06218 151.37033 2986 ft 241 kts 78°
2026-05-07 07:04 -34.05792 151.38921 2982 ft 230 kts 78°
2026-05-07 07:05 -34.05368 151.40767 2989 ft 224 kts 78°
2026-05-07 07:05 -34.05091 151.41966 3002 ft 222 kts 78°
2026-05-07 07:05 -34.04544 151.44357 2984 ft 221 kts 78°
2026-05-07 07:05 -34.04138 151.46124 2989 ft 220 kts 78°
2026-05-07 07:06 -34.03728 151.47900 2987 ft 221 kts 78°
2026-05-07 07:06 -34.03193 151.49625 2972 ft 221 kts 55°
2026-05-07 07:06 -34.02036 151.50780 2969 ft 217 kts 18°
2026-05-07 07:06 -34.00599 151.51378 2986 ft 219 kts 13°
2026-05-07 07:07 -33.99161 151.51947 2992 ft 215 kts 13°
2026-05-07 07:07 -33.97743 151.52508 2986 ft 214 kts 13°
2026-05-07 07:07 -33.96331 151.53065 2989 ft 215 kts 13°
2026-05-07 07:07 -33.94907 151.53627 2986 ft 211 kts 13°
2026-05-07 07:08 -33.93520 151.54176 2989 ft 209 kts 13°
2026-05-07 07:08 -33.92135 151.54724 2990 ft 209 kts 13°
2026-05-07 07:08 -33.90792 151.55374 2987 ft 212 kts 33°
2026-05-07 07:08 -33.89836 151.56734 2997 ft 214 kts 60°
2026-05-07 07:09 -33.89069 151.58261 2989 ft 217 kts 59°
2026-05-07 07:09 -33.88270 151.59811 2986 ft 217 kts 59°
2026-05-07 07:09 -33.87479 151.61339 2993 ft 217 kts 59°
2026-05-07 07:09 -33.86525 151.62715 2980 ft 213 kts 31°
2026-05-07 07:10 -33.85146 151.63232 2976 ft 205 kts 351°
2026-05-07 07:10 -33.83840 151.62736 2973 ft 192 kts 318°
2026-05-07 07:10 -33.83077 151.61597 2970 ft 169 kts 279°
2026-05-07 07:10 -33.83165 151.60275 2965 ft 158 kts 239°
2026-05-07 07:11 -33.83820 151.59213 2988 ft 159 kts 239°
2026-05-07 07:11 -33.84301 151.58005 2991 ft 159 kts 247°
2026-05-07 07:11 -33.84665 151.56776 2994 ft 158 kts 249°
2026-05-07 07:11 -33.84995 151.55515 3001 ft 159 kts 251°
2026-05-07 07:12 -33.85312 151.54236 3000 ft 159 kts 251°
2026-05-07 07:12 -33.85621 151.52957 2999 ft 158 kts 251°
2026-05-07 07:12 -33.85928 151.51689 2995 ft 158 kts 251°
2026-05-07 07:12 -33.86232 151.50427 3002 ft 159 kts 251°
2026-05-07 07:13 -33.86539 151.49147 2995 ft 157 kts 251°
2026-05-07 07:13 -33.86842 151.47894 2997 ft 158 kts 251°
2026-05-07 07:13 -33.87148 151.46617 2992 ft 157 kts 251°
2026-05-07 07:13 -33.87454 151.45346 3007 ft 158 kts 251°
2026-05-07 07:14 -33.87759 151.44073 3004 ft 157 kts 251°
2026-05-07 07:14 -33.88059 151.42822 3002 ft 157 kts 251°
2026-05-07 07:14 -33.88363 151.41553 3001 ft 158 kts 251°
2026-05-07 07:14 -33.88664 151.40297 2990 ft 158 kts 251°
2026-05-07 07:15 -33.88972 151.39014 2997 ft 159 kts 251°
2026-05-07 07:15 -33.89276 151.37740 2994 ft 157 kts 251°
2026-05-07 07:15 -33.89576 151.36485 2986 ft 160 kts 251°
2026-05-07 07:15 -33.89888 151.35181 2773 ft 158 kts 251°
2026-05-07 07:16 -33.90183 151.33949 2583 ft 157 kts 251°
2026-05-07 07:16 -33.90481 151.32703 2380 ft 148 kts 251°
2026-05-07 07:16 -33.90751 151.31572 2191 ft 132 kts 251°
2026-05-07 07:16 -33.91002 151.30534 2041 ft 133 kts 251°
2026-05-07 07:17 -33.91262 151.29436 1850 ft 134 kts 251°
2026-05-07 07:17 -33.91504 151.28421 1672 ft 119 kts 251°
2026-05-07 07:17 -33.91722 151.27512 1524 ft 111 kts 251°
2026-05-07 07:17 -33.91934 151.26621 1412 ft 112 kts 251°
2026-05-07 07:18 -33.92146 151.25725 1269 ft 112 kts 251°
2026-05-07 07:18 -33.92377 151.24817 1079 ft 111 kts 252°
2026-05-07 07:18 -33.92588 151.23921 944 ft 113 kts 252°
2026-05-07 07:18 -33.92800 151.23012 778 ft 112 kts 255°
2026-05-07 07:19 -33.93017 151.22107 628 ft 112 kts 254°
2026-05-07 07:19 -33.93233 151.21191 470 ft 113 kts 255°
2026-05-07 07:19 -33.93449 151.20287 293 ft 113 kts 255°
2026-05-07 07:19 -33.93665 151.19374 145 ft 113 kts 256°
2026-05-07 07:20 -33.93880 151.18465 42 ft 110 kts 256°
2026-05-07 07:20 -33.94046 151.17752 35 ft 63 kts 254°
2026-05-07 07:20 -33.94128 151.17406 35 ft 31 kts 254°
2026-05-07 07:20 -33.94134 151.17274 35 ft 13 kts 320°
2026-05-07 07:21 -33.94064 151.17248 35 ft 0 kts 348°
2026-05-07 07:22 -33.94060 151.17247 35 ft 1 kts 347°
2026-05-07 07:22 -33.94024 151.17238 35 ft 9 kts 347°
2026-05-07 07:22 -33.93922 151.17210 35 ft 20 kts 348°
2026-05-07 07:22 -33.93758 151.17169 35 ft 22 kts 348°
2026-05-07 07:23 -33.93622 151.17136 35 ft 15 kts 348°
2026-05-07 07:23 -33.93520 151.17096 35 ft 15 kts 318°
2026-05-07 07:23 -33.93510 151.17007 35 ft 7 kts 252°
2026-05-07 07:23 -33.93550 151.16991 35 ft 6 kts 160°
2026-05-07 07:24 -33.93591 151.17006 35 ft 4 kts 166°
2026-05-07 07:24 -33.93616 151.17012 35 ft 0 kts 167°